Regional Weather Roundup
Issued by NWS Midland/Odessa, TX

Skip options and go directly to product.
Home | Oldest Version | Next Version | Current Version | All | Text Only | Save Text | Print | Product List | Glossary On

Skip product version selection by date and time.   
265
ASUS44 KMAF 291810
RWRMAF
MIDLAND AREA WEATHER ROUNDUP
NATIONAL WEATHER SERVICE MIDLAND TX
100 PM CDT WED JUN 29 2016

...IN SOUTHWEST TEXAS AND SOUTHEAST NEW MEXICO...

CITY           SKY/WX    TMP DP  RH WIND       PRES   REMARKS
ALPINE         CLOUDY    80  59  47 NE10      30.29F
ANDREWS        FAIR      87  59  38 CALM      30.17F
ARTESIA        SUNNY     88  61  40 VRB5      30.17F
BIG SPRING     SUNNY     82  60  47 NW3       30.16F
CARLSBAD       SUNNY     86  57  37 CALM      30.16F
DRYDEN         NOT AVBL
FORT STOCKTON  SUNNY     88  62  41 NE8G16    30.15F
GUAD PASS      NOT AVBL
HOBBS          MOSUNNY   86  55  35 E7        30.20F
MARFA          CLOUDY   N/A N/A N/A NE8G17    30.26F
MIDLAND AIRPK  SUNNY     86  61  42 CALM      30.15F
MIDLAND INTL   SUNNY     85  62  46 VRB3      30.15F
ODESSA         SUNNY     87  59  38 VRB5      30.16F
PECOS          SUNNY     89  62  41 E12       30.13F
PRESIDIO       FAIR      90  60  36 CALM      30.11F
SEMINOLE       MOSUNNY   86  56  35 E3        30.19F
SNYDER           N/A     84  65  53 N6        30.13F
WINK           SUNNY     88  61  40 E3        30.13F
$$
...OTHER STATIONS IN TEXAS...

CITY           SKY/WX    TMP DP  RH WIND       PRES   REMARKS
ABILENE        MOSUNNY   88  70  55 N6        30.10F
AMARILLO       SUNNY     87  58  37 SW8G16    30.16F
AUSTIN         MOSUNNY   89  71  55 NE7       30.01F
BROWNSVILLE    PTSUNNY   90  72  55 S5        29.98S
CORPUS CHRISTI PTSUNNY   91  73  55 N9        29.98F
DALLAS FTW     PTSUNNY   93  67  42 VRB5      30.02F
DEL RIO        SUNNY     91  69  48 VRB5      30.02F
EL PASO        MOSUNNY   84  58  40 SW5       30.18F
HOUSTON INT    MOSUNNY   90  73  57 N8        29.96F
LUBBOCK        MOSUNNY   85  59  41 SE7       30.17F
SAN ANGELO     SUNNY     86  69  56 NE3       30.10F
SAN ANTONIO    MOSUNNY   90  67  46 N9        30.03F
WACO           SUNNY     91  69  48 N9        30.02F
WICHITA FALLS  NOT AVBL
$$
...OTHER LOCATIONS IN NEW MEXICO...

CITY           SKY/WX    TMP DP  RH WIND       PRES   REMARKS
ALAMAGORDO     SUNNY     84  55  37 CALM      30.22F
ALBUQUERQUE    PTSUNNY   80  51  36 S5        30.30F
CANNON AFB     NOT AVBL
CLOVIS         SUNNY     84  57  39 NW7       30.20F
HOLLOMAN AFB   SUNNY     86  55  34 SW7       30.20F
ROSWELL        SUNNY     90  56  31 MISG      30.16F
RUIDOSO        LGT RAIN  77  41  27 E13       30.41F
SANTA FE       SUNNY     80  47  31 VRB3      30.35F
TRUTH OR CONSE SUNNY     85  54  34 SE7       30.25F
TUCUMCARI      SUNNY     89  54  30 VRB5      30.16F
$$

USA.gov is the U.S. government's official web portal to all federal, state and local government web resources and services.